Theta_e
318 310 307 307 298 293 287 290 293 294 294 296 299 301 301 304 300 295 321 333 338 340 344 345 348 348 347 344 342 343 343 341 340 341 342 342 344 341 339 338 337 337 337 339 338 339 339 338 336
311 311 307 300 292 286 287 292 292 295 297 302 301 302 305 304 313 323 327 336 339 341 343 345 345 347 346 343 344 344 343 340 340 340 340 342 344 340 338 336 336 335 337 339 338 339 338 337 335
311 307 302 295 288 287 287 291 295 296 299 298 298 305 306 307 314 325 330 338 340 341 343 343 344 347 346 344 344 343 343 341 339 340 341 343 344 340 337 336 335 335 337 336 337 338 337 336 336
306 302 298 292 287 289 290 295 296 296 297 301 301 302 309 314 322 327 336 339 340 341 342 342 345 347 345 345 344 342 342 341 340 340 342 345 342 339 335 335 334 334 335 334 336 338 338 338 336
302 298 291 290 289 292 293 296 296 296 296 297 301 301 307 317 325 334 336 339 339 339 341 342 344 345 345 345 343 343 342 341 341 339 342 342 340 337 334 334 333 333 334 334 336 336 335 335 334
297 296 289 287 289 291 294 295 295 295 297 297 302 304 308 317 328 332 335 335 339 339 341 342 338 340 343 343 342 341 341 340 339 339 341 340 338 336 333 332 331 332 333 333 334 334 333 333 332
296 293 288 288 288 291 295 297 294 296 296 296 306 301 305 314 326 332 333 334 337 339 340 341 340 338 336 338 338 339 339 339 339 339 340 338 336 335 332 331 330 331 332 332 332 332 331 331 330
298 294 288 288 290 290 294 296 296 297 297 299 306 301 302 317 326 331 333 333 334 338 339 339 338 338 337 335 332 334 335 336 337 335 333 331 331 331 329 328 330 330 331 331 330 330 329 328 327
297 290 287 290 291 291 295 294 295 297 298 298 301 305 308 320 325 330 330 332 333 335 337 337 338 338 335 333 329 329 330 331 330 328 325 322 321 319 319 324 328 330 329 329 328 327 325 322 321
294 290 290 292 291 291 295 294 296 296 295 298 303 308 310 319 323 326 327 327 329 331 333 336 336 337 336 334 329 328 327 325 323 321 319 319 317 317 319 320 325 327 326 326 324 321 316 311 307
293 291 292 293 294 294 295 293 294 294 293 296 300 305 311 315 318 323 327 328 328 331 333 335 335 336 336 334 332 328 324 321 320 317 318 317 317 316 316 316 314 313 313 312 310 307 306 305 306
291 293 293 296 296 294 293 294 292 293 295 297 300 308 313 315 318 319 322 326 326 327 331 333 335 336 336 335 332 330 324 321 319 317 318 317 316 314 313 311 311 309 308 306 304 303 303 302 302
290 292 293 294 294 292 294 291 293 293 296 296 298 310 312 316 318 320 321 323 325 326 329 331 334 335 336 334 333 331 327 322 320 318 319 318 316 314 312 310 309 308 306 304 302 301 300 299 299
293 293 292 294 293 293 292 289 291 291 293 294 298 306 311 314 315 313 315 317 324 327 328 331 332 333 334 333 332 332 330 326 321 319 321 318 317 314 311 309 309 307 305 303 300 298 297 295 296
294 290 290 292 292 293 293 289 292 292 293 292 293 297 305 309 312 315 318 318 322 327 328 329 331 332 333 333 332 332 331 329 323 320 320 319 318 317 315 313 311 308 303 298 296 294 294 293 292
290 288 284 288 292 292 290 285 290 292 292 293 292 291 294 299 309 312 316 319 319 324 326 328 331 330 332 333 332 331 332 329 325 321 322 320 319 319 315 314 313 306 302 299 296 295 293 290 290
287 281 284 288 292 291 289 287 291 293 292 292 292 293 293 294 296 304 312 315 320 322 325 325 329 329 330 332 332 331 331 330 326 322 322 321 320 320 317 315 312 307 301 297 295 294 292 291 289
283 283 284 284 289 289 287 289 292 293 292 292 293 293 293 294 296 297 302 312 317 321 324 325 326 329 330 331 332 331 330 330 329 324 322 321 322 320 318 316 311 305 300 296 294 292 291 291 288
286 284 283 286 290 289 288 289 291 293 292 293 292 293 293 294 298 297 297 300 308 317 320 323 323 327 330 331 329 328 327 327 328 327 323 323 323 320 318 314 309 305 301 297 294 291 289 287 288
285 284 283 287 290 290 288 288 291 291 293 294 294 293 293 292 292 295 296 295 298 308 318 321 323 325 328 330 331 329 328 327 328 327 326 324 323 321 318 313 309 306 302 296 292 292 289 289 288
284 283 284 286 286 285 285 284 286 288 290 292 293 294 294 294 294 295 295 295 295 298 310 319 321 324 326 328 324 312 314 312 311 314 323 323 322 320 317 314 311 307 303 296 294 293 291 287 289
283 288 288 286 284 280 284 277 283 287 289 291 292 292 291 291 293 294 294 295 294 297 303 315 320 322 324 325 322 323 323 320 320 320 319 315 321 320 318 314 312 309 305 299 295 294 293 290 288
287 289 287 285 282 281 281 280 282 284 286 290 290 290 291 293 292 292 293 295 296 296 302 313 317 319 321 319 321 321 321 322 313 316 314 315 309 316 317 314 312 309 307 301 298 295 293 293 291
291 288 286 284 282 277 281 281 279 283 286 287 288 290 293 295 295 295 296 296 296 298 302 309 314 317 318 317 319 318 320 308 309 310 313 311 309 307 307 311 312 311 308 303 299 296 295 294 294
287 284 277 276 275 276 280 279 281 287 288 288 290 290 293 294 294 294 295 295 297 299 303 307 310 309 314 314 314 315 315 308 310 311 313 309 304 301 304 305 305 307 308 305 301 298 296 295 294
285 285 278 271 273 276 281 279 284 289 291 291 291 291 293 293 294 294 294 294 295 296 298 303 305 306 308 311 311 309 308 309 310 310 310 310 308 308 306 304 305 305 305 305 302 299 297 296 295
286 282 285 279 269 274 278 282 287 289 290 293 294 293 292 294 294 294 295 294 295 295 297 299 300 302 304 305 306 305 305 304 308 306 306 306 304 301 301 301 301 301 302 302 301 299 297 296 295
288 290 283 281 273 271 276 278 281 286 290 291 291 292 292 293 293 294 294 295 296 296 297 299 300 300 301 301 301 301 301 302 304 301 300 299 298 296 296 297 297 297 298 298 299 298 297 295 295
286 285 285 285 281 274 272 278 285 289 291 290 290 291 291 292 292 293 294 295 295 296 296 297 298 299 299 299 299 299 299 298 298 298 296 293 291 291 291 293 293 293 293 294 295 296 294 294 294
289 287 286 279 277 279 279 279 288 291 292 293 292 292 291 291 292 293 294 294 294 295 296 296 297 297 297 298 298 298 297 295 295 294 293 291 290 288 288 288 288 290 291 291 293 293 293 292 292
Wind_Speed
5 5 2 6 6 6 1 2 1 4 0 2 0 4 6 2 4 4 1 5 12 12 8 9 11 13 14 13 12 12 12 13 13 13 14 13 17 18 18 18 16 17 17 18 17 20 21 20 20
2 1 5 3 6 3 5 2 5 4 5 6 3 3 4 1 1 4 6 5 15 11 9 7 12 13 14 13 11 11 12 13 13 13 13 13 16 17 18 18 16 16 17 17 17 21 20 20 19
1 4 5 5 4 5 5 4 5 3 5 3 2 3 4 4 2 7 2 10 11 10 8 8 12 14 14 13 12 12 12 13 13 13 13 11 17 18 17 17 16 15 17 17 17 19 19 20 19
2 5 5 5 2 3 4 6 5 5 1 4 3 3 2 2 7 6 11 12 10 9 7 10 13 14 14 13 13 13 13 13 13 13 11 17 18 17 15 16 16 15 16 16 17 18 18 18 21
4 3 5 2 4 2 1 3 6 5 4 3 2 3 3 2 4 12 12 11 12 8 8 9 12 13 14 13 13 12 13 13 13 13 13 17 18 17 16 16 16 15 16 16 18 19 19 20 19
4 4 4 2 3 2 1 3 4 4 4 4 5 5 3 2 7 7 10 9 10 11 9 7 10 11 12 13 13 12 12 13 13 14 14 16 15 15 16 16 16 16 17 16 18 19 19 19 19
6 5 5 4 3 1 5 7 3 6 6 4 9 6 2 2 6 8 8 7 8 10 12 8 7 9 10 11 11 11 12 12 12 13 12 13 14 15 15 14 15 17 17 17 18 17 18 18 19
5 6 4 2 4 4 5 6 4 6 6 3 5 5 4 5 9 7 7 7 8 9 12 12 7 7 6 7 10 10 11 11 10 11 11 11 13 13 11 11 13 17 17 17 17 17 18 18 19
2 6 3 4 6 4 5 4 2 1 5 1 5 7 3 10 10 9 6 7 9 9 13 12 11 8 6 6 7 9 10 10 11 11 11 8 5 7 7 8 12 16 16 17 17 18 18 19 19
5 4 8 4 3 3 4 2 7 4 3 2 2 1 3 10 12 15 13 12 13 12 13 13 13 11 8 6 6 5 6 4 5 6 6 5 5 5 6 7 11 14 15 16 16 16 15 11 5
3 6 5 3 2 1 4 1 1 7 4 7 10 6 7 6 9 13 13 12 14 12 10 13 14 12 11 8 6 3 3 3 4 6 5 5 5 4 4 3 3 4 8 4 6 6 5 7 5
4 3 5 5 2 3 4 1 2 6 7 3 9 8 10 10 14 14 13 12 11 10 13 12 14 14 13 7 6 7 5 4 4 5 7 6 4 4 4 4 4 4 3 5 5 4 6 8 8
2 3 3 1 2 1 2 1 4 7 9 4 4 9 12 14 15 11 10 6 7 10 11 12 13 13 13 11 8 7 7 5 5 6 5 5 5 5 4 4 4 4 4 5 5 6 6 7 8
4 3 3 3 2 2 3 1 2 4 3 5 5 10 11 12 16 6 7 9 11 12 12 11 13 13 13 11 12 9 8 8 6 6 7 7 6 5 4 4 4 5 5 4 5 5 6 6 6
3 2 2 4 2 3 4 4 9 4 3 3 7 7 8 11 6 13 16 14 15 13 11 13 13 12 14 15 12 10 9 8 8 7 7 9 8 9 8 5 5 4 4 7 7 7 7 7 6
4 5 1 2 4 1 2 9 5 3 3 5 6 7 9 11 14 12 10 12 10 11 13 13 12 13 14 15 11 9 9 9 8 8 8 11 10 10 9 7 6 6 6 6 6 7 7 6 5
6 3 3 6 5 2 2 6 4 2 4 4 6 8 9 10 10 12 14 13 11 14 13 13 13 14 15 14 11 11 11 9 8 8 8 11 11 12 9 8 7 8 7 7 6 5 5 7 7
6 3 3 4 3 2 3 10 11 7 4 9 10 9 10 10 17 11 15 15 14 12 14 14 13 14 14 10 11 8 8 9 9 9 9 13 11 13 10 8 10 9 7 6 7 7 5 5 8
6 4 3 3 1 3 7 8 11 10 7 11 11 11 11 13 12 9 9 11 10 10 12 14 14 14 11 10 11 10 11 9 8 9 12 13 12 13 12 8 10 9 10 10 9 9 9 5 7
3 3 3 4 0 5 5 11 10 9 10 12 12 12 13 9 7 10 9 8 11 17 17 14 16 15 15 12 11 8 9 7 9 9 12 14 14 14 12 12 11 12 9 10 12 12 7 4 8
4 5 5 6 3 2 5 9 6 6 6 7 10 12 10 11 11 10 9 10 9 11 15 17 18 18 16 15 8 3 4 3 2 3 8 10 14 14 14 14 12 13 11 11 13 13 12 5 9
5 7 5 4 3 4 2 8 6 5 9 8 13 9 9 10 9 8 8 9 8 11 9 14 15 15 14 15 13 16 14 11 10 8 6 7 13 14 14 15 14 14 10 12 13 12 11 6 10
6 4 4 3 4 3 4 1 8 3 6 12 9 9 8 9 7 9 9 8 7 6 9 10 9 10 12 15 16 14 13 9 4 5 9 11 6 9 13 15 15 14 11 12 15 14 13 11 9
9 7 8 5 3 4 8 7 6 5 6 5 4 8 10 9 9 8 6 7 6 5 2 5 8 10 11 13 14 16 15 7 7 7 8 6 5 5 5 8 12 15 14 14 14 15 16 12 11
4 7 2 4 2 8 3 2 8 10 7 7 9 8 8 7 7 8 9 9 8 8 5 3 1 3 7 8 8 10 8 8 10 9 8 8 6 4 8 9 7 8 12 13 13 14 13 14 14
8 9 8 9 5 4 3 7 8 6 7 5 5 7 9 10 8 7 7 7 8 8 7 5 4 3 3 4 5 6 7 6 6 7 6 7 7 8 8 10 10 10 11 10 12 10 11 12 11
7 6 7 7 3 4 5 7 11 6 9 8 11 11 10 10 10 9 9 7 7 7 6 4 2 1 4 6 5 6 6 6 7 6 5 4 4 4 6 8 8 8 9 10 11 9 11 10 11
6 9 5 2 3 3 4 4 7 2 6 5 10 9 9 8 10 9 7 7 7 6 6 6 3 2 2 3 4 4 5 5 4 4 5 5 4 4 5 6 6 6 7 8 9 8 8 11 10
4 3 3 5 6 7 2 7 7 9 7 7 5 5 5 7 8 7 7 7 7 6 6 6 5 3 2 3 3 5 5 5 4 4 4 6 4 6 6 6 6 6 7 7 8 8 8 12 12
4 8 7 7 5 4 4 8 4 8 8 6 6 4 1 2 5 7 7 7 7 7 7 7 6 5 3 4 4 4 3 3 4 5 6 5 6 5 6 6 6 6 6 7 9 10 9 11 11
Wind_Direction
315 344 69 41 56 65 223 223 240 130 42 304 308 156 156 86 153 204 337 149 130 142 152 158 147 139 127 119 120 112 109 103 103 104 101 100 103 98 92 87 86 88 91 84 83 87 86 82 79
355 175 41 80 87 84 264 256 166 195 153 138 80 70 52 38 56 106 109 178 143 143 146 146 138 137 129 130 124 119 116 114 110 109 108 109 108 100 93 93 87 94 93 83 86 90 87 86 85
193 45 82 93 109 175 191 200 183 167 164 171 77 56 125 172 36 162 143 141 138 138 138 142 139 137 135 135 131 126 121 120 120 113 113 113 112 100 99 93 93 94 94 89 91 93 92 91 90
89 14 36 86 207 230 199 174 193 144 65 78 123 55 14 212 150 182 142 136 137 134 130 146 143 142 140 139 135 132 129 127 124 117 111 115 106 105 105 99 95 96 94 91 95 91 91 87 92
37 56 68 60 284 279 203 168 178 138 146 116 137 203 355 30 69 132 139 143 143 132 136 147 146 146 143 140 140 138 133 129 124 123 111 113 113 112 111 108 105 106 101 94 95 91 86 83 81
40 99 68 171 263 313 91 164 178 145 159 145 81 119 199 32 127 152 143 152 149 144 147 149 147 145 146 146 144 140 135 134 131 130 119 116 113 117 116 112 111 110 101 104 102 96 92 90 85
117 85 188 156 227 182 200 144 197 172 154 216 158 132 259 233 158 151 144 138 144 145 156 152 151 151 147 145 143 142 140 138 135 131 124 119 119 119 117 115 116 113 108 108 101 98 95 91 85
107 93 131 223 174 238 169 163 161 159 219 87 156 188 216 201 144 126 123 138 142 153 165 168 152 151 146 150 145 142 139 137 129 113 105 98 103 108 110 109 118 115 111 107 105 98 92 87 82
125 70 169 194 159 222 150 144 188 65 116 211 180 155 235 137 123 133 144 159 164 167 173 174 166 155 148 144 150 140 138 128 121 115 111 97 105 108 102 115 120 117 113 108 104 99 93 86 79
89 114 207 208 187 201 176 145 174 144 150 227 237 115 110 133 152 166 176 179 182 182 180 175 175 166 154 152 144 136 136 132 128 126 123 114 114 117 115 116 116 112 114 112 106 99 88 74 60
160 173 193 225 201 190 151 118 187 130 245 213 204 167 156 151 170 177 187 189 186 184 182 180 174 170 166 160 156 141 135 135 134 137 131 126 118 109 109 107 88 96 84 78 84 83 67 71 70
126 166 164 170 217 131 167 126 230 188 225 255 213 171 162 169 184 188 193 194 182 182 186 180 174 171 176 162 165 163 157 156 154 157 147 143 136 135 135 132 129 102 86 93 83 82 81 72 63
169 168 154 126 168 185 94 230 247 255 253 264 100 154 181 188 198 203 202 199 181 191 189 187 176 176 174 169 167 166 171 172 167 161 160 148 146 151 147 145 129 118 114 116 105 100 90 78 70
189 134 151 183 235 185 175 216 47 285 251 226 161 197 199 196 202 184 183 199 200 196 195 187 186 177 177 173 179 175 174 177 166 171 175 160 155 151 149 144 135 129 130 120 115 112 98 81 80
104 104 339 211 220 229 156 273 230 246 323 269 215 229 228 229 207 212 209 206 201 206 192 191 189 177 181 182 186 186 181 177 175 179 167 168 166 167 159 156 144 137 110 110 104 95 95 91 82
70 43 83 295 144 295 106 263 270 311 209 243 240 245 242 239 224 225 222 219 201 200 195 193 193 186 182 187 185 192 190 177 179 178 174 176 174 173 166 166 163 134 130 123 126 129 111 100 95
19 193 210 309 190 126 166 272 267 164 42 291 269 264 248 259 244 223 220 219 206 201 198 195 194 190 187 189 188 192 196 187 183 179 181 182 179 177 173 169 150 145 137 135 137 122 120 126 113
197 198 221 243 215 152 206 261 280 270 280 273 285 274 266 251 247 228 214 218 213 199 202 202 196 194 188 184 192 194 196 196 188 185 187 180 184 180 175 167 156 150 142 143 133 130 109 123 122
139 157 181 248 125 167 240 265 267 285 304 285 263 267 260 248 262 240 223 211 209 211 195 198 192 194 183 190 194 194 203 197 192 190 189 186 184 182 174 164 157 161 164 159 148 125 133 96 133
123 140 250 293 336 164 300 274 267 265 256 245 264 266 259 269 270 266 251 210 199 208 207 199 200 190 193 194 199 202 197 203 200 189 187 192 185 177 175 170 171 170 158 157 162 155 154 123 194
195 172 203 216 6 6 351 287 275 287 263 275 257 252 264 253 272 273 261 228 205 206 203 202 199 195 195 188 165 88 81 68 104 196 186 191 183 179 176 178 176 174 168 173 177 174 172 158 199
195 203 156 143 81 236 21 285 301 283 302 290 275 268 287 275 259 260 263 264 222 226 211 206 202 197 190 175 179 190 199 198 205 192 184 176 180 187 184 181 180 181 181 175 185 182 175 162 187
210 118 124 91 101 28 326 10 274 304 278 264 290 302 301 311 301 300 302 278 270 219 198 196 190 184 178 177 186 190 201 206 169 179 187 187 163 185 190 184 184 183 186 190 179 186 188 186 175
152 82 51 56 80 298 199 179 276 224 215 298 292 338 331 339 343 350 358 3 359 350 226 178 172 184 175 180 188 194 203 163 156 169 184 188 203 177 182 190 198 189 190 183 187 188 186 197 189
96 88 7 353 12 231 95 141 245 265 258 238 297 326 332 326 328 339 359 3 359 9 9 8 145 140 172 181 188 194 195 174 186 183 192 177 173 192 192 186 183 199 202 191 190 187 198 198 196
192 156 162 192 195 251 114 236 251 231 271 313 317 340 356 356 345 345 0 2 13 18 25 44 49 56 143 167 161 171 169 183 189 185 182 193 199 210 189 193 190 192 193 188 188 198 200 198 204
192 197 155 104 33 62 227 292 305 321 4 33 28 26 8 1 357 357 0 14 9 15 16 13 6 116 180 178 172 193 191 181 192 179 169 176 184 169 174 190 193 192 185 186 183 189 195 197 203
158 156 89 10 156 266 275 262 234 133 82 26 28 20 355 356 2 2 8 4 359 360 352 10 28 292 243 218 214 207 202 203 189 157 187 192 179 162 172 183 186 186 191 188 186 191 195 193 203
140 172 106 125 154 173 220 254 216 143 120 95 53 23 6 7 6 359 354 353 350 347 358 351 3 354 318 231 221 208 218 203 174 198 206 205 179 182 195 189 187 191 193 191 196 203 190 201 205
160 196 149 145 223 226 161 256 163 133 131 113 73 36 37 27 360 356 353 352 357 348 343 342 339 337 330 295 265 244 217 183 190 211 223 195 207 188 199 187 191 198 203 199 207 209 204 206 209